[[{"header":{"parameterUnit":"m.s-1","parameterCategory":1,"la1":30.2991,"la2":30.254,"lo1":-89.0895,"lo2":-89.0444,"dy":0.0017,"dx":0.0017,"nx":28,"ny":28,"refTime":"2025-03-29T03:00:00:Z","depth":0,"parameterNumber":2,"parameterNumberName":"U-component_of_WINDS"},"data":[0,0,0,0,0,0,0,0,0,0,0,0,0,0,0,0,0,0,0,0,0,0,0,0,0,0,0,0,0,0,0,0,0,0,0,0,0,0,0,0,0,0,0,0,0,0,0,0,0,0,0,0,0,0,0,0,0,0,-6.4612,-6.4612,0,-6.4599,-6.4599,-6.4599,-6.4482,-6.4479,-6.4476,-6.4473,-6.446,-6.4462,-6.4464,0,0,0,0,0,0,0,0,0,0,0,0,0,-6.4536,-6.4538,-6.4612,-6.4612,-6.4611,-6.4599,-6.4599,-6.4599,-6.4482,-6.4479,-6.4475,-6.4472,-6.4459,-6.4462,-6.4464,0,0,0,0,0,0,0,0,0,0,0,0,0,-6.4551,-6.4539,-6.4612,-6.4552,-6.4546,-6.4599,-6.4599,-6.4599,-6.4483,-6.4479,-6.4474,-6.447,-6.4458,-6.4461,-6.4465,-6.4574,0,0,-6.4476,-6.4477,0,0,0,0,0,0,0,0,-6.455,-6.4554,-6.4561,-6.4556,-6.455,-6.4538,-6.4567,-6.459,-6.4484,-6.4507,-6.4473,-6.4468,-6.4489,-6.449,-6.4497,-6.4573,-6.4572,-6.4476,-6.4478,-6.4479,-6.448,0,0,0,0,0,0,0,-6.455,-6.4554,-6.4607,-6.4561,-6.4555,-6.4526,-6.4523,-6.4571,-6.4523,-6.4505,-6.4496,-6.4496,-6.4485,-6.4494,-6.4496,-6.4572,-6.4476,-6.4479,-6.4481,-6.4482,-6.4738,-6.4742,0,0,0,0,0,0,-6.4557,-6.4554,-6.4607,-6.4606,-6.454,-6.4531,-6.4528,-6.4546,-6.4522,-6.4514,-6.45,-6.4491,-6.449,-6.4492,-6.4495,-6.462,-6.4479,-6.4483,-6.4485,-6.4733,-6.4739,-6.4744,0,0,0,0,0,0,-6.4556,-6.4563,-6.4607,-6.4578,-6.4581,-6.4537,-6.4558,-6.4548,-6.4556,-6.4518,-6.4509,-6.4518,-6.4487,-6.449,-6.4555,-6.4617,-6.4484,-6.4488,-6.4728,-6.4735,-6.4741,-6.4871,0,0,0,0,0,0,-6.4554,-6.4563,-6.4603,-6.458,-6.4583,-6.4668,-6.4562,-6.4551,-6.4563,-6.4551,-6.4532,-6.4525,-6.4483,-6.455,-6.4559,-6.462,-6.449,-6.4722,-6.4731,-6.4739,-6.4861,-6.4882,-6.49,0,0,0,0,0,-6.4552,-6.464,-6.4606,-6.4613,-6.4633,-6.4672,-6.4674,-6.4624,-6.4568,-6.4608,-6.4585,-6.4526,-6.4611,-6.4558,-6.4566,-6.463,-6.4717,-6.4728,-6.4738,-6.4852,-6.4878,-6.4899,0,0,0,0,0,0,-6.4671,-6.4635,-6.4597,-6.468,-6.468,-6.4652,-6.47,-6.4653,-6.4668,-6.4656,-6.4594,-6.4591,-6.4665,-6.4655,-6.4597,-6.4734,-6.4654,-6.4667,-6.4738,-6.4761,-6.478,-6.478,-6.4493,0,0,0,0,0,-6.4707,-6.4742,-6.4709,-6.4786,-6.4788,-6.4745,-6.476,-6.4723,-6.4719,-6.4718,-6.4699,-6.4698,-6.4725,-6.4743,-6.4765,-6.4861,-6.4854,-6.4909,-6.4928,-6.4944,-6.4954,-6.5004,-6.5027,-6.4778,-6.4778,-6.4778,0,0,-6.4781,-6.4767,-6.4792,-6.4809,-6.4804,-6.4842,-6.4745,-6.4788,-6.4815,-6.4725,-6.4784,-6.4771,-6.4767,-6.4847,-6.4882,-6.484,-6.5023,-6.4957,-6.497,-6.4972,-6.5017,-6.5041,-6.5062,-6.4786,-6.4784,-6.4783,0,0,-6.4935,-6.4928,-6.4991,-6.4989,-6.4984,-6.4955,-6.4971,-6.4951,-6.4939,-6.4999,-6.4932,-6.4964,-6.5011,-6.501,-6.5016,-6.5175,-6.512,-6.5184,-6.5283,-6.5332,-6.5351,-6.5368,-6.5423,-6.5444,-6.5195,-6.5196,-6.5196,0,-6.5027,-6.508,-6.5029,-6.5077,-6.5087,-6.5009,-6.5072,-6.5073,-6.5076,-6.5084,-6.5039,-6.5097,-6.5088,-6.5168,-6.5207,-6.5215,-6.523,-6.5183,-6.5353,-6.5369,-6.5384,-6.5436,-6.5457,-6.5203,-6.5202,-6.5202,-6.5201,0,-6.5194,-6.5233,-6.5284,-6.5289,-6.5306,-6.5361,-6.5319,-6.5342,-6.5305,-6.5282,-6.5344,-6.5332,-6.535,-6.5368,-6.5331,-6.5443,-6.5417,-6.5364,-6.528,-6.5416,-6.5464,-6.5483,-6.5214,-6.5211,-6.5209,-6.5207,0,0,-6.5417,-6.5396,-6.5416,-6.5418,-6.5408,-6.5437,-6.5491,-6.5509,-6.553,-6.5536,-6.5578,-6.5622,-6.5573,-6.558,-6.5543,-6.5587,-6.5712,-6.5528,-6.5527,-6.556,-6.5833,-6.5871,-6.5895,-6.5678,-6.5682,-6.5685,-6.5833,0,-6.5563,-6.5652,-6.5609,-6.5703,-6.5738,-6.5667,-6.5713,-6.5713,-6.5694,-6.5721,-6.5701,-6.5732,-6.5666,-6.5669,-6.571,-6.5688,-6.5765,-6.5678,-6.5715,-6.5717,-6.5715,-6.5919,-6.5959,-6.6099,-6.5851,-6.5854,-6.5856,0,-6.5744,-6.5759,-6.5856,-6.5842,-6.5855,-6.5898,-6.5912,-6.594,-6.5939,-6.5922,-6.5932,-6.5887,-6.5938,-6.586,-6.593,-6.5871,-6.5885,-6.5878,-6.5882,-6.588,-6.5792,-6.5921,-6.6142,-6.6163,-6.5885,-6.5883,-6.5881,0,-6.5894,-6.5939,-6.6003,-6.6007,-6.5993,-6.6024,-6.602,-6.6015,-6.603,-6.6044,-6.6052,-6.6073,-6.6083,-6.61,-6.606,-6.6007,-6.6136,-6.6054,-6.6122,-6.6123,-6.6149,-6.6147,-6.6373,-6.6164,-6.6164,-6.6163,-6.6163,0,-6.606,-6.6122,-6.607,-6.6109,-6.6177,-6.6129,-6.6198,-6.6186,-6.6183,-6.6218,-6.616,-6.6194,-6.6142,-6.6172,-6.6143,-6.6205,-6.6211,-6.6198,-6.6189,-6.6201,-6.6203,-6.6206,-6.6194,-6.6169,-6.6168,-6.6167,-6.6166,0,-6.6237,-6.6205,-6.627,-6.6253,-6.625,-6.6301,-6.6285,-6.6321,-6.63,-6.6346,-6.6354,-6.6321,-6.6354,-6.6318,-6.6348,-6.6328,-6.6411,-6.6389,-6.6411,-6.6403,-6.6473,-6.6466,-6.6706,-6.6734,-6.6511,-6.6513,-6.6515,0,-6.6342,-6.6388,-6.6377,-6.6397,-6.6397,-6.643,-6.6445,-6.6402,-6.642,-6.6424,-6.646,-6.6488,-6.6507,-6.6563,-6.6541,-6.6564,-6.654,-6.6623,-6.6542,-6.6554,-6.6538,-6.6534,-6.6538,-6.6638,-6.664,-6.6643,-6.6644,0,-6.6533,-6.6516,-6.654,-6.6561,-6.6582,-6.6596,-6.6605,-6.6625,-6.6579,-6.6604,-6.6636,-6.6652,-6.6684,-6.6712,-6.6729,-6.6724,-6.6677,-6.6671,-6.6687,-6.6698,-6.6708,-6.6702,-6.6452,-6.6664,-6.6662,-6.6661,-6.666,-6.6659,-6.6675,-6.6713,-6.6712,-6.6742,-6.6745,-6.6756,-6.6789,-6.6773,-6.68,-6.6822,-6.6796,-6.6836,-6.6836,-6.6854,-6.6856,-6.6887,-6.6851,-6.6876,-6.6881,-6.6887,-6.6896,-6.6707,-6.689,-6.689,-6.6889,-6.6889,-6.6888,0,-6.686,-6.6857,-6.6886,-6.6901,-6.6926,-6.6882,-6.6891,-6.6913,-6.695,-6.6955,-6.6976,-6.7015,-6.7043,-6.7025,-6.7049,-6.7077,-6.7056,-6.7085,-6.708,-6.708,-6.6928,-6.691,-6.7102,-6.7101,-6.7101,-6.7101,-6.7101,-6.7101,-6.6959,-6.7021,-6.7005,-6.7069,-6.7064,-6.7104,-6.7113,-6.7123,-6.7126,-6.7172,-6.7196,-6.7185,-6.718,-6.7204,-6.7228,-6.7222,-6.7232,-6.7268,-6.7255,-6.7112,-6.7091,-6.707,-6.7053,-6.7272,-6.7272,-6.7403,-6.7405,-6.7406]},{"header":{"parameterUnit":"m.s-1","parameterCategory":1,"la1":30.2991,"la2":30.254,"lo1":-89.0895,"lo2":-89.0444,"dy":0.0017,"dx":0.0017,"nx":28,"ny":28,"refTime":"2025-03-29T03:00:00:Z","depth":0,"parameterNumber":3,"parameterNumberName":"V-component_of_WINDS"},"data":[0,0,0,0,0,0,0,0,0,0,0,0,0,0,0,0,0,0,0,0,0,0,0,0,0,0,0,0,0,0,0,0,0,0,0,0,0,0,0,0,0,0,0,0,0,0,0,0,0,0,0,0,0,0,0,0,0,0,5.5591,5.5592,0,5.5631,5.5631,5.5632,5.5623,5.5622,5.5621,5.562,5.5659,5.5661,5.5662,0,0,0,0,0,0,0,0,0,0,0,0,0,5.5506,5.5508,5.5591,5.5592,5.5592,5.5631,5.5631,5.5632,5.5623,5.5622,5.5621,5.562,5.5658,5.5661,5.5663,0,0,0,0,0,0,0,0,0,0,0,0,0,5.5544,5.5508,5.5591,5.5592,5.5593,5.5631,5.5631,5.5632,5.5623,5.5622,5.5621,5.562,5.5658,5.566,5.5663,5.5701,0,0,5.5671,5.5672,0,0,0,0,0,0,0,0,5.5542,5.5547,5.5592,5.5592,5.5593,5.5621,5.5616,5.5655,5.5623,5.5611,5.562,5.5619,5.5647,5.565,5.566,5.5703,5.5705,5.5671,5.5673,5.5674,5.5674,0,0,0,0,0,0,0,5.5539,5.5546,5.5607,5.5592,5.5593,5.5591,5.5595,5.5623,5.5635,5.5612,5.5612,5.5617,5.5647,5.5658,5.5661,5.5705,5.5671,5.5673,5.5675,5.5676,5.5783,5.5784,0,0,0,0,0,0,5.5536,5.5543,5.5605,5.5608,5.5564,5.5593,5.5598,5.5613,5.5635,5.5637,5.5618,5.5616,5.5654,5.5658,5.5662,5.571,5.5674,5.5676,5.5678,5.5782,5.5783,5.5785,0,0,0,0,0,0,5.5535,5.5542,5.5604,5.5576,5.5583,5.5596,5.5613,5.5614,5.5625,5.5639,5.5641,5.5627,5.5653,5.5659,5.5692,5.5711,5.5677,5.568,5.578,5.5782,5.5784,5.5805,0,0,0,0,0,0,5.5532,5.5542,5.5556,5.5576,5.5585,5.5633,5.5614,5.5616,5.563,5.5628,5.5647,5.565,5.5653,5.5688,5.5695,5.5714,5.5682,5.5779,5.5781,5.5784,5.5803,5.5807,5.5811,0,0,0,0,0,5.5529,5.556,5.5557,5.5565,5.5604,5.5634,5.5639,5.5643,5.5631,5.5646,5.5655,5.5649,5.5708,5.5692,5.5699,5.5719,5.5778,5.5781,5.5783,5.5801,5.5806,5.5811,0,0,0,0,0,0,5.5541,5.5562,5.556,5.5598,5.5614,5.5633,5.5652,5.5649,5.5669,5.5666,5.567,5.5674,5.5708,5.5717,5.5699,5.5759,5.5741,5.5746,5.5752,5.5757,5.5762,5.5759,5.5684,0,0,0,0,0,5.5548,5.5572,5.5589,5.5621,5.5629,5.5639,5.5653,5.5654,5.5672,5.5678,5.569,5.5706,5.5729,5.5743,5.5765,5.5804,5.5808,5.5821,5.5826,5.5829,5.5833,5.5856,5.5862,5.5794,5.5794,5.5794,0,0,5.5563,5.5578,5.5592,5.5624,5.5637,5.5661,5.5645,5.5671,5.5689,5.5682,5.5715,5.5724,5.5743,5.578,5.5796,5.5788,5.5853,5.5833,5.5836,5.5838,5.586,5.5866,5.5872,5.5796,5.5796,5.5796,0,0,5.5603,5.5616,5.5644,5.5658,5.5679,5.5686,5.5693,5.5712,5.5718,5.5751,5.5747,5.5768,5.5806,5.582,5.5832,5.5879,5.5874,5.5885,5.5908,5.5931,5.5936,5.5941,5.5958,5.5964,5.5889,5.5889,5.5889,0,5.5618,5.5655,5.5659,5.5687,5.5701,5.5696,5.5726,5.5739,5.5765,5.5775,5.5765,5.5814,5.5826,5.5867,5.5879,5.5888,5.5896,5.5883,5.5935,5.594,5.5944,5.5961,5.5968,5.5891,5.589,5.589,5.589,0,5.5674,5.57,5.572,5.5748,5.5764,5.5792,5.58,5.5816,5.5817,5.5824,5.5859,5.5873,5.5898,5.5908,5.5907,5.5949,5.5943,5.5934,5.5917,5.5952,5.5968,5.5974,5.5892,5.5892,5.5892,5.5891,0,0,5.5722,5.5752,5.576,5.5772,5.5795,5.5815,5.5843,5.5868,5.5883,5.5901,5.5925,5.5958,5.595,5.5964,5.5966,5.5985,5.6022,5.5974,5.5974,5.5983,5.607,5.6077,5.6085,5.6019,5.602,5.6021,5.6069,0,5.5765,5.5815,5.582,5.5865,5.589,5.5886,5.5911,5.5927,5.5935,5.5957,5.5965,5.5989,5.5977,5.5985,5.6004,5.6014,5.604,5.601,5.6042,5.6043,5.6038,5.6093,5.61,5.6144,5.6075,5.6076,5.6077,0,5.5822,5.5843,5.5891,5.5912,5.5922,5.5944,5.5969,5.5989,5.6008,5.6012,5.6029,5.6028,5.6057,5.6038,5.6078,5.6058,5.6071,5.6078,5.608,5.6083,5.6062,5.6099,5.6158,5.6165,5.6086,5.6085,5.6085,0,5.5854,5.5894,5.5929,5.5939,5.5964,5.598,5.5991,5.6009,5.6024,5.6045,5.6055,5.6079,5.6092,5.611,5.6116,5.6101,5.6156,5.6137,5.6161,5.6161,5.6173,5.6173,5.6237,5.618,5.618,5.618,5.618,0,5.5902,5.5931,5.5944,5.5965,5.5998,5.6003,5.6036,5.6046,5.6062,5.6085,5.6083,5.6104,5.611,5.6133,5.6137,5.6171,5.6176,5.6181,5.6182,5.6182,5.6181,5.6191,5.6188,5.6182,5.6181,5.6181,5.6181,0,5.5943,5.5953,5.599,5.6011,5.6017,5.6041,5.6058,5.6079,5.6087,5.6116,5.6123,5.6135,5.6162,5.6169,5.6201,5.6204,5.6243,5.6241,5.6237,5.6238,5.6261,5.6259,5.6334,5.6345,5.628,5.6281,5.6281,0,5.5974,5.5997,5.6021,5.6037,5.6049,5.6074,5.609,5.6096,5.6112,5.6136,5.6154,5.618,5.6202,5.6245,5.6256,5.628,5.6279,5.6304,5.6283,5.6282,5.6281,5.628,5.6283,5.6308,5.6309,5.6309,5.631,0,5.6028,5.6032,5.6055,5.6081,5.61,5.612,5.614,5.6152,5.6161,5.618,5.6208,5.6225,5.6258,5.6284,5.6309,5.632,5.6317,5.6316,5.6323,5.6324,5.6321,5.6324,5.6249,5.6315,5.6314,5.6314,5.6314,5.6313,5.6066,5.6087,5.6108,5.6134,5.6149,5.6168,5.6188,5.6199,5.6223,5.6251,5.6252,5.6283,5.6302,5.6335,5.6347,5.6371,5.6363,5.6373,5.6376,5.6378,5.6381,5.6317,5.6375,5.6375,5.6375,5.6375,5.6375,0,5.6121,5.6134,5.6159,5.6187,5.6208,5.6203,5.6224,5.6242,5.6269,5.6287,5.6309,5.6341,5.6367,5.6381,5.6407,5.6423,5.6423,5.643,5.6429,5.6432,5.6386,5.6378,5.643,5.643,5.643,5.643,5.643,5.643,5.6153,5.6188,5.6194,5.6238,5.625,5.6281,5.6293,5.631,5.6325,5.6362,5.6383,5.6392,5.6409,5.6436,5.646,5.6463,5.6473,5.6482,5.6484,5.6441,5.6435,5.643,5.6422,5.6483,5.6484,5.6529,5.6529,5.653]}]]